Location: Unspecified
(40.7945°N, 111.1337°W)
Time: 07:14:39
(UTC-07:00)

ISS - Visible Passes

Search period start: 19 November 2018 00:00
Search period end: 29 November 2018 00:00
Orbit: 401 x 408 km, 51.6° (Epoch: 19 November)

Date Brightness Start Highest point End Pass type
(mag) Time Alt. Az. Time Alt. Az. Time Alt. Az.
21 Nov -1.0 19:13:27 10° SSW 19:13:48 12° SSW 19:13:48 12° SSW visible
22 Nov -1.9 18:22:13 10° S 18:24:14 17° SE 18:24:14 17° SE visible
23 Nov -2.3 19:05:15 10° SW 19:07:15 35° SW 19:07:15 35° SW visible
24 Nov -3.3 18:13:19 10° SSW 18:16:24 42° SE 18:17:29 30° E visible
24 Nov -0.2 19:50:10 10° W 19:50:10 10° W 19:50:10 10° W visible
25 Nov -2.7 18:57:36 10° WSW 19:00:19 39° NW 19:00:19 39° NW visible
26 Nov -3.8 18:05:14 10° WSW 18:08:28 76° NW 18:10:23 23° NE visible
27 Nov -2.0 18:50:18 10° WNW 18:52:59 23° NNW 18:53:02 23° NNW visible
28 Nov -2.6 17:57:37 10° W 18:00:38 35° NNW 18:02:58 15° NE visible
